JIA4470 KCLT-KSVN

Flight info

Callsign JIA4470
Flight time 0h 52m
Altitude 24000
Route ICONS5 NOOKS
Aircraft CRJ7/M-SDFGIRWY/S

Departure

Time 2026-05-06 23:28
Airport Charlotte Douglas International Airport (KCLT)

Arrival

Time 2026-05-07 00:21
Airport Hunter Army Air Field (KSVN)
Time Latitude Longitude Altitude Speed Heading
2026-05-06 23:11 35.22254 -80.93985 730 ft 0 kts
2026-05-06 23:20 35.22240 -80.93985 730 ft 3 kts
2026-05-06 23:20 35.22221 -80.93982 730 ft 3 kts 349°
2026-05-06 23:21 35.22203 -80.93982 730 ft 3 kts 15°
2026-05-06 23:21 35.22186 -80.93994 730 ft 3 kts 50°
2026-05-06 23:21 35.22179 -80.94015 730 ft 3 kts 84°
2026-05-06 23:21 35.22178 -80.94021 730 ft 0 kts 82°
2026-05-06 23:25 35.22180 -80.93977 730 ft 8 kts 85°
2026-05-06 23:25 35.22180 -80.93908 730 ft 8 kts 92°
2026-05-06 23:25 35.22180 -80.93834 731 ft 9 kts 81°
2026-05-06 23:26 35.22192 -80.93762 731 ft 9 kts 69°
2026-05-06 23:26 35.22260 -80.93733 731 ft 13 kts 355°
2026-05-06 23:26 35.22356 -80.93742 731 ft 14 kts 356°
2026-05-06 23:26 35.22391 -80.93726 732 ft 0 kts 50°
2026-05-06 23:27 35.22393 -80.93723 732 ft 3 kts 54°
2026-05-06 23:27 35.22402 -80.93669 733 ft 6 kts 85°
2026-05-06 23:27 35.22386 -80.93614 733 ft 8 kts 161°
2026-05-06 23:28 35.22191 -80.93595 734 ft 64 kts 175°
2026-05-06 23:28 35.21420 -80.93529 732 ft 154 kts 176°
2026-05-06 23:28 35.20180 -80.93413 1266 ft 188 kts 177°
2026-05-06 23:28 35.18788 -80.93240 2139 ft 215 kts 176°
2026-05-06 23:29 35.17263 -80.92973 3030 ft 225 kts 176°
2026-05-06 23:29 35.15676 -80.92647 3799 ft 239 kts 176°
2026-05-06 23:29 35.14004 -80.92295 4592 ft 255 kts 176°
2026-05-06 23:29 35.12211 -80.91891 5621 ft 259 kts 176°
2026-05-06 23:30 35.10473 -80.91685 6698 ft 249 kts 190°
2026-05-06 23:30 35.08759 -80.91926 7789 ft 241 kts 195°
2026-05-06 23:30 35.07141 -80.92225 8828 ft 237 kts 196°
2026-05-06 23:30 35.05494 -80.92532 9673 ft 241 kts 196°
2026-05-06 23:31 35.03803 -80.92819 10504 ft 244 kts 195°
2026-05-06 23:31 35.02118 -80.93064 11338 ft 244 kts 194°
2026-05-06 23:31 35.00454 -80.93280 12197 ft 242 kts 194°
2026-05-06 23:31 34.98745 -80.93488 13046 ft 246 kts 194°
2026-05-06 23:32 34.97013 -80.93689 13895 ft 255 kts 194°
2026-05-06 23:32 34.95199 -80.93883 14718 ft 267 kts 194°
2026-05-06 23:32 34.93312 -80.94072 15421 ft 280 kts 194°
2026-05-06 23:32 34.91975 -80.94219 15531 ft 302 kts 194°
2026-05-06 23:33 34.89847 -80.94450 16171 ft 314 kts 193°
2026-05-06 23:33 34.87627 -80.94682 16822 ft 326 kts 193°
2026-05-06 23:33 34.85317 -80.94924 17484 ft 339 kts 193°
2026-05-06 23:33 34.82924 -80.95174 18144 ft 352 kts 193°
2026-05-06 23:34 34.80440 -80.95431 18753 ft 364 kts 193°
2026-05-06 23:34 34.77873 -80.95689 19330 ft 377 kts 193°
2026-05-06 23:34 34.75215 -80.95950 19930 ft 389 kts 193°
2026-05-06 23:34 34.72482 -80.96234 20533 ft 400 kts 193°
2026-05-06 23:35 34.69663 -80.96513 21156 ft 411 kts 193°
2026-05-06 23:35 34.66785 -80.96806 21788 ft 419 kts 193°
2026-05-06 23:35 34.63868 -80.97087 22402 ft 424 kts 192°
2026-05-06 23:35 34.60889 -80.97400 22725 ft 436 kts 194°
2026-05-06 23:36 34.57829 -80.97859 22866 ft 451 kts 195°
2026-05-06 23:36 34.54672 -80.98406 22934 ft 460 kts 195°
2026-05-06 23:36 34.51558 -80.98991 22953 ft 450 kts 197°
2026-05-06 23:36 34.48465 -80.99597 22952 ft 449 kts 196°
2026-05-06 23:37 34.45381 -81.00156 22953 ft 448 kts 195°
2026-05-06 23:37 34.42302 -81.00679 22949 ft 446 kts 195°
2026-05-06 23:37 34.39239 -81.01186 22955 ft 444 kts 195°
2026-05-06 23:37 34.36178 -81.01698 22961 ft 443 kts 195°
2026-05-06 23:38 34.33178 -81.02206 22954 ft 441 kts 195°
2026-05-06 23:38 34.30097 -81.02729 22957 ft 440 kts 195°
2026-05-06 23:38 34.27077 -81.03251 22958 ft 438 kts 196°
2026-05-06 23:38 34.24059 -81.03771 22955 ft 438 kts 195°
2026-05-06 23:39 34.21042 -81.04274 22954 ft 437 kts 195°
2026-05-06 23:39 34.18037 -81.04777 22952 ft 436 kts 195°
2026-05-06 23:39 34.15043 -81.05297 22957 ft 435 kts 195°
2026-05-06 23:39 34.12048 -81.05800 22957 ft 434 kts 195°
2026-05-06 23:40 34.09056 -81.06292 22958 ft 434 kts 195°
2026-05-06 23:40 34.06073 -81.06793 22955 ft 433 kts 195°
2026-05-06 23:40 34.03086 -81.07296 22958 ft 433 kts 195°
2026-05-06 23:40 34.00106 -81.07792 22953 ft 432 kts 195°
2026-05-06 23:41 33.97132 -81.08293 22962 ft 432 kts 195°
2026-05-06 23:41 33.94157 -81.08800 22950 ft 432 kts 195°
2026-05-06 23:41 33.91185 -81.09299 22950 ft 431 kts 195°
2026-05-06 23:41 33.88212 -81.09792 22948 ft 431 kts 195°
2026-05-06 23:42 33.85239 -81.10291 22953 ft 431 kts 195°
2026-05-06 23:42 33.82277 -81.10802 22953 ft 430 kts 195°
2026-05-06 23:42 33.79312 -81.11302 22951 ft 430 kts 195°
2026-05-06 23:42 33.76344 -81.11794 22965 ft 430 kts 195°
2026-05-06 23:43 33.73380 -81.12284 22953 ft 430 kts 195°
2026-05-06 23:43 33.70412 -81.12784 22951 ft 430 kts 195°
2026-05-06 23:43 33.67452 -81.13288 22946 ft 430 kts 195°
2026-05-06 23:43 33.64493 -81.13784 22943 ft 430 kts 195°
2026-05-06 23:44 33.61529 -81.14274 22947 ft 430 kts 195°
2026-05-06 23:44 33.58566 -81.14762 22941 ft 430 kts 195°
2026-05-06 23:44 33.55603 -81.15251 22937 ft 429 kts 195°
2026-05-06 23:44 33.52649 -81.15749 22943 ft 429 kts 195°
2026-05-06 23:45 33.49689 -81.16244 22945 ft 429 kts 195°
2026-05-06 23:45 33.46731 -81.16739 22952 ft 429 kts 195°
2026-05-06 23:45 33.43773 -81.17233 22967 ft 429 kts 195°
2026-05-06 23:45 33.40813 -81.17727 22960 ft 430 kts 195°
2026-05-06 23:46 33.37854 -81.18223 22974 ft 430 kts 195°
2026-05-06 23:46 33.34890 -81.18720 22971 ft 430 kts 195°
2026-05-06 23:46 33.31929 -81.19219 22971 ft 430 kts 195°
2026-05-06 23:46 33.28970 -81.19720 22972 ft 430 kts 195°
2026-05-06 23:47 33.26009 -81.20222 22982 ft 430 kts 195°
2026-05-06 23:47 33.23044 -81.20726 22979 ft 430 kts 195°
2026-05-06 23:47 33.20081 -81.21229 22979 ft 430 kts 195°
2026-05-06 23:47 33.17114 -81.21727 22977 ft 431 kts 195°
2026-05-06 23:48 33.14142 -81.22208 22973 ft 431 kts 195°
2026-05-06 23:48 33.11175 -81.22703 22974 ft 431 kts 195°
2026-05-06 23:48 33.08204 -81.23203 22973 ft 431 kts 195°
2026-05-06 23:48 33.05231 -81.23681 22976 ft 431 kts 195°
2026-05-06 23:49 33.02260 -81.24174 22972 ft 431 kts 195°
2026-05-06 23:49 32.99295 -81.24674 22971 ft 431 kts 195°
2026-05-06 23:49 32.96332 -81.25150 22767 ft 422 kts 195°
2026-05-06 23:49 32.93500 -81.25595 22356 ft 401 kts 195°
2026-05-06 23:50 32.90787 -81.26020 21884 ft 386 kts 195°
2026-05-06 23:50 32.85621 -81.26876 20837 ft 366 kts 196°
2026-05-06 23:50 32.83131 -81.27297 20298 ft 358 kts 196°
2026-05-06 23:51 32.80685 -81.27710 19772 ft 352 kts 196°
2026-05-06 23:51 32.78282 -81.28116 19262 ft 345 kts 196°
2026-05-06 23:51 32.75957 -81.28509 18755 ft 340 kts 196°
2026-05-06 23:51 32.73602 -81.28894 18254 ft 335 kts 196°
2026-05-06 23:52 32.71309 -81.29260 17695 ft 330 kts 196°
2026-05-06 23:52 32.69047 -81.29621 17140 ft 326 kts 195°
2026-05-06 23:52 32.66845 -81.29973 16603 ft 322 kts 195°
2026-05-06 23:52 32.64610 -81.30336 16052 ft 318 kts 195°
2026-05-06 23:53 32.62455 -81.30696 15533 ft 315 kts 195°
2026-05-06 23:53 32.60296 -81.31054 15009 ft 312 kts 195°
2026-05-06 23:53 32.58125 -81.31407 14496 ft 309 kts 194°
2026-05-06 23:53 32.56007 -81.31756 13991 ft 306 kts 194°
2026-05-06 23:54 32.53910 -81.32110 13451 ft 303 kts 194°
2026-05-06 23:54 32.51834 -81.32452 12891 ft 300 kts 194°
2026-05-06 23:54 32.49771 -81.32779 12346 ft 297 kts 194°
2026-05-06 23:54 32.47733 -81.33100 11814 ft 294 kts 194°
2026-05-06 23:55 32.45717 -81.33420 11333 ft 289 kts 194°
2026-05-06 23:55 32.43746 -81.33731 10924 ft 283 kts 194°
2026-05-06 23:55 32.41814 -81.34035 10494 ft 278 kts 193°
2026-05-06 23:55 32.39918 -81.34335 10142 ft 273 kts 194°
2026-05-06 23:56 32.38052 -81.34633 9709 ft 268 kts 193°
2026-05-06 23:56 32.36222 -81.34933 9268 ft 264 kts 193°
2026-05-06 23:56 32.34419 -81.35235 8808 ft 260 kts 193°
2026-05-06 23:56 32.32641 -81.35533 8353 ft 256 kts 193°
2026-05-06 23:57 32.30895 -81.35823 7967 ft 251 kts 193°
2026-05-06 23:57 32.29188 -81.36104 7588 ft 245 kts 193°
2026-05-06 23:57 32.27517 -81.36384 7228 ft 240 kts 192°
2026-05-06 23:57 32.25876 -81.36659 6955 ft 236 kts 193°
2026-05-06 23:58 32.24260 -81.36933 6664 ft 233 kts 192°
2026-05-06 23:58 32.22627 -81.37211 6340 ft 242 kts 193°
2026-05-06 23:58 32.20927 -81.37485 6014 ft 249 kts 191°
2026-05-06 23:58 32.19226 -81.37737 5655 ft 244 kts 191°
2026-05-06 23:59 32.17554 -81.37994 5298 ft 241 kts 191°
2026-05-06 23:59 32.15906 -81.38260 4934 ft 238 kts 190°
2026-05-06 23:59 32.14265 -81.38521 4613 ft 242 kts 191°
2026-05-06 23:59 32.12606 -81.38791 4361 ft 240 kts 191°
2026-05-07 00:00 32.10980 -81.39074 4119 ft 233 kts 191°
2026-05-07 00:00 32.09385 -81.39342 3681 ft 230 kts 190°
2026-05-07 00:00 32.07799 -81.39538 3251 ft 230 kts 179°
2026-05-07 00:00 32.06782 -81.39202 2939 ft 234 kts 150°
2026-05-07 00:01 32.05373 -81.37286 2540 ft 232 kts 122°
2026-05-07 00:01 32.04632 -81.35652 2289 ft 220 kts 120°
2026-05-07 00:01 32.03965 -81.34129 2239 ft 198 kts 122°
2026-05-07 00:01 32.03358 -81.32765 2178 ft 178 kts 121°
2026-05-07 00:02 32.02807 -81.31544 2216 ft 162 kts 123°
2026-05-07 00:02 32.02247 -81.30353 2114 ft 165 kts 123°
2026-05-07 00:02 32.01721 -81.29207 2094 ft 156 kts 123°
2026-05-07 00:02 32.01295 -81.28011 2087 ft 156 kts 99°
2026-05-07 00:03 32.01293 -81.26769 2019 ft 154 kts 93°
2026-05-07 00:03 32.01264 -81.25470 1981 ft 158 kts 95°
2026-05-07 00:03 32.01233 -81.24223 1884 ft 151 kts 96°
2026-05-07 00:03 32.01242 -81.22976 1727 ft 153 kts 94°
2026-05-07 00:04 32.01268 -81.21732 1536 ft 144 kts 96°
2026-05-07 00:04 32.01235 -81.20612 1180 ft 132 kts 101°
2026-05-07 00:04 32.01155 -81.19434 1201 ft 167 kts 98°
2026-05-07 00:04 32.01062 -81.17907 1411 ft 224 kts 97°
2026-05-07 00:05 32.00994 -81.16003 2644 ft 236 kts 94°
2026-05-07 00:05 32.00937 -81.13934 3569 ft 267 kts 94°
2026-05-07 00:05 32.00807 -81.11691 3924 ft 288 kts 95°
2026-05-07 00:05 32.00730 -81.09336 3724 ft 277 kts 93°
2026-05-07 00:06 32.00644 -81.07362 3602 ft 265 kts 95°
2026-05-07 00:06 32.00518 -81.05255 3519 ft 250 kts 96°
2026-05-07 00:06 32.00404 -81.03272 3462 ft 235 kts 96°
2026-05-07 00:06 32.00295 -81.01425 3525 ft 219 kts 95°
2026-05-07 00:07 32.00195 -80.99694 3766 ft 205 kts 96°
2026-05-07 00:07 32.00109 -80.98060 3932 ft 196 kts 96°
2026-05-07 00:07 32.00026 -80.96476 3918 ft 191 kts 94°
2026-05-07 00:07 31.99935 -80.94939 3993 ft 186 kts 96°
2026-05-07 00:08 31.99850 -80.93454 3945 ft 177 kts 96°
2026-05-07 00:08 31.99782 -80.92055 3918 ft 165 kts 95°
2026-05-07 00:08 31.99715 -80.90723 3698 ft 171 kts 96°
2026-05-07 00:08 31.99623 -80.89156 3970 ft 207 kts 96°
2026-05-07 00:09 31.99616 -80.87421 4639 ft 211 kts 75°
2026-05-07 00:09 32.00426 -80.85981 4538 ft 220 kts 33°
2026-05-07 00:09 32.01728 -80.85175 4984 ft 200 kts 17°
2026-05-07 00:09 32.02992 -80.84724 5044 ft 185 kts
2026-05-07 00:10 32.04307 -80.84686 4754 ft 190 kts 340°
2026-05-07 00:10 32.05293 -80.85577 4718 ft 189 kts 289°
2026-05-07 00:10 32.05423 -80.87188 4740 ft 197 kts 265°
2026-05-07 00:10 32.05306 -80.88713 4621 ft 182 kts 263°
2026-05-07 00:11 32.05150 -80.90200 4221 ft 184 kts 261°
2026-05-07 00:11 32.04955 -80.91695 3838 ft 186 kts 260°
2026-05-07 00:11 32.04817 -80.92697 3672 ft 188 kts 261°
2026-05-07 00:11 32.04631 -80.94226 3321 ft 191 kts 271°
2026-05-07 00:12 32.05107 -80.95736 2781 ft 201 kts 302°
2026-05-07 00:12 32.05915 -80.97003 2603 ft 186 kts 307°
2026-05-07 00:12 32.06792 -80.98060 2318 ft 179 kts 311°
2026-05-07 00:12 32.07688 -80.99092 1911 ft 180 kts 312°
2026-05-07 00:13 32.08708 -81.00079 1866 ft 194 kts 320°
2026-05-07 00:13 32.09799 -81.00952 2105 ft 187 kts 322°
2026-05-07 00:13 32.10874 -81.01777 2164 ft 179 kts 325°
2026-05-07 00:13 32.11894 -81.02524 2058 ft 170 kts 323°
2026-05-07 00:14 32.12952 -81.03309 2106 ft 180 kts 324°
2026-05-07 00:14 32.14006 -81.04099 2095 ft 189 kts 323°
2026-05-07 00:14 32.15189 -81.05013 2092 ft 215 kts 323°
2026-05-07 00:14 32.16438 -81.05980 2083 ft 213 kts 322°
2026-05-07 00:15 32.17675 -81.06931 2032 ft 212 kts 323°
2026-05-07 00:15 32.18905 -81.07881 2013 ft 210 kts 323°
2026-05-07 00:15 32.20126 -81.08828 2049 ft 211 kts 322°
2026-05-07 00:15 32.21088 -81.09971 2022 ft 178 kts 291°
2026-05-07 00:16 32.21594 -81.11191 1972 ft 158 kts 291°
2026-05-07 00:16 32.22116 -81.12391 1972 ft 159 kts 291°
2026-05-07 00:16 32.22600 -81.13483 1963 ft 150 kts 291°
2026-05-07 00:16 32.23021 -81.14598 2054 ft 137 kts 282°
2026-05-07 00:17 32.23154 -81.15617 2104 ft 124 kts 264°
2026-05-07 00:17 32.23136 -81.16718 2065 ft 140 kts 263°
2026-05-07 00:17 32.23062 -81.17882 2016 ft 145 kts 258°
2026-05-07 00:17 32.22760 -81.18957 2168 ft 135 kts 235°
2026-05-07 00:18 32.22066 -81.19652 2287 ft 147 kts 206°
2026-05-07 00:18 32.21047 -81.20052 2238 ft 146 kts 189°
2026-05-07 00:18 32.20105 -81.20088 1976 ft 128 kts 182°
2026-05-07 00:18 32.19254 -81.20075 1757 ft 120 kts 180°
2026-05-07 00:19 32.18367 -81.20062 1520 ft 135 kts 182°
2026-05-07 00:19 32.17436 -81.20071 1396 ft 131 kts 181°
2026-05-07 00:19 32.16579 -81.20073 1146 ft 122 kts 179°
2026-05-07 00:19 32.15715 -81.20058 878 ft 127 kts 177°
2026-05-07 00:20 32.14850 -81.20033 590 ft 121 kts 184°
2026-05-07 00:20 32.14027 -81.20026 292 ft 117 kts 178°
2026-05-07 00:20 32.13239 -81.20013 55 ft 104 kts 180°
2026-05-07 00:20 32.12620 -81.20008 42 ft 73 kts 179°
2026-05-07 00:21 32.12277 -81.20007 41 ft 19 kts 178°
2026-05-07 00:21 32.12167 -81.20033 41 ft 14 kts 232°
2026-05-07 00:21 32.12154 -81.20139 41 ft 13 kts 278°
2026-05-07 00:21 32.12197 -81.20191 40 ft 7 kts 345°
2026-05-07 00:22 32.12250 -81.20195 39 ft 8 kts 358°
2026-05-07 00:22 32.12338 -81.20200 40 ft 20 kts 357°
2026-05-07 00:22 32.12500 -81.20205 40 ft 25 kts 344°
2026-05-07 00:22 32.12657 -81.20299 38 ft 26 kts 330°
2026-05-07 00:23 32.12828 -81.20330 40 ft 24 kts
2026-05-07 00:23 32.12995 -81.20332 42 ft 24 kts 357°
2026-05-07 00:23 32.13156 -81.20334 44 ft 23 kts
2026-05-07 00:23 32.13318 -81.20324 45 ft 23 kts
2026-05-07 00:24 32.13441 -81.20358 46 ft 15 kts 278°
2026-05-07 00:24 32.13447 -81.20500 38 ft 20 kts 271°
2026-05-07 00:24 32.13451 -81.20619 36 ft 9 kts 289°
2026-05-07 00:24 32.13474 -81.20645 35 ft 2 kts 346°
2026-05-07 00:25 32.13514 -81.20647 35 ft 5 kts
2026-05-07 00:25 32.13518 -81.20647 35 ft 0 kts